Location: *
(34.8620°S, 39.3380°E)
Time: 23:37:24
(UTC+00:00)

Meteor 1-4 Rocket - Pass Details

Date: 27 July 2021
Orbit: 447 x 498 km, 81.2° (Epoch: 20 September)

Event Time Altitude Azimuth Distance (km) Brightness Sun altitude
Rises 03:40:59 0° 186° (S) 2,551 6.0 -8.5°
Reaches altitude 10° 03:43:08 10° 184° (S) 1,654 5.0 -8.1°
Maximum altitude 03:46:44 72° 99° (E) 496 2.8 -7.4°
Drops below altitude 10° 03:50:14 10° 13° (NNE) 1,601 5.7 -6.7°
Sets 03:52:16 0° 11° (N) 2,458 6.6 -6.3°
